Voltar ao catálogo

OPAL

AtivoCiênciaLEO
NORAD 26063·PAYLOAD·🇺🇸 United States

Lançado Jan 27, 2000 de Vandenberg Space Force Base

Loading…

Próximas Passagens (próximas 24 horas)

TLE

AtualizadoSource: Space-Track

Época: Sep 14, 2026, 07:25 UTC

1 26063U 00004C   26257.30938377  .00000083  00000-0  46736-4 0  9994
2 26063 100.1977 210.5926 0036159 142.1503 218.2231 14.37990686396098

Acompanhe OPAL em tempo real com AllMySat

Download on the App Store